Theta_e
351 355 363 360 359 360 364 364 366 366 365 364 365 364 364 366 366 366 367 366 366 365 365 363 363 361 360 361 364 364 365 367 366 366 364 362 361 364 367 362 362 356 360
353 357 365 362 362 362 364 365 365 366 365 365 365 364 363 363 363 364 365 364 364 365 362 361 361 360 360 359 359 361 361 365 366 365 366 365 360 360 361 361 364 362 362
351 356 360 365 364 363 365 365 364 364 364 366 365 363 362 362 363 363 363 363 365 362 362 361 360 359 359 359 358 357 359 361 364 364 364 359 359 361 362 361 361 360 360
351 354 356 365 365 365 365 366 366 363 363 363 357 362 362 361 362 361 362 361 361 363 362 361 360 360 358 358 359 357 360 361 362 362 358 352 353 359 361 362 360 359 359
352 355 360 368 367 365 366 365 363 363 362 356 355 356 360 359 359 360 360 360 360 360 361 360 359 359 358 357 356 358 359 358 359 356 357 350 350 355 359 361 361 360 359
352 357 365 368 367 365 365 365 363 362 361 356 353 350 349 357 355 356 357 359 357 357 358 359 359 358 357 356 356 356 359 359 356 353 351 353 349 359 357 357 357 360 360
353 357 360 368 367 366 367 365 363 363 362 359 357 352 353 346 349 352 355 357 356 357 356 356 358 357 357 357 356 357 358 358 356 355 352 348 350 358 356 355 356 358 360
354 354 357 365 367 367 366 364 366 364 361 360 359 357 356 351 348 351 354 354 355 357 357 357 357 357 357 358 356 356 357 359 356 351 353 350 356 358 354 352 356 357 358
355 355 357 358 363 366 366 365 364 363 362 361 359 357 355 353 352 350 353 354 356 357 357 357 357 358 358 357 357 357 358 358 355 350 350 353 360 357 355 356 355 359 357
353 356 358 361 361 361 362 364 363 363 361 359 358 356 355 354 354 354 355 355 358 358 357 357 358 359 359 358 358 357 357 359 353 355 352 353 360 358 358 358 358 357 360
355 353 357 356 359 361 362 363 363 362 361 360 359 356 354 350 352 355 358 360 358 358 358 359 360 358 358 357 357 357 357 352 354 351 352 360 361 359 358 358 357 358 359
351 353 357 357 355 360 359 363 363 362 358 358 359 353 355 357 355 355 358 358 359 360 360 360 359 358 359 354 353 357 354 354 352 351 352 361 362 360 358 358 358 358 357
353 352 355 359 362 357 360 361 359 361 363 361 359 357 356 356 352 354 356 354 357 360 356 356 355 355 354 355 352 352 345 343 350 350 354 361 362 360 359 358 359 358 357
349 353 355 355 356 360 358 358 358 357 358 357 358 359 359 355 357 356 355 354 358 357 355 354 352 353 352 353 351 352 349 351 349 348 356 361 361 361 359 357 359 357 358
350 350 352 358 362 356 364 364 360 359 358 359 358 357 359 353 357 359 356 357 356 356 351 350 353 352 349 350 353 350 348 348 350 350 351 361 361 361 360 356 358 358 358
349 348 352 356 360 363 365 365 363 354 357 358 357 358 360 356 359 362 354 354 356 357 353 354 362 361 359 358 358 350 343 351 352 350 349 354 361 360 361 360 358 357 356
349 351 352 354 356 363 364 362 358 360 354 356 357 362 362 363 359 358 353 353 360 353 347 355 356 358 359 353 349 354 350 351 350 352 349 351 356 361 361 360 361 360 358
349 352 355 352 354 361 362 354 359 360 352 357 357 359 358 358 362 361 357 356 359 357 355 351 359 355 354 353 355 346 352 349 353 349 351 351 351 353 361 362 360 361 357
351 349 353 353 353 357 363 360 359 357 362 361 361 356 360 354 358 360 360 359 365 361 358 350 350 351 348 353 350 347 349 351 351 343 347 349 350 350 353 359 359 359 358
350 355 351 355 357 359 356 359 355 351 360 358 368 366 356 356 358 361 360 361 362 361 356 355 352 353 351 353 347 347 350 348 347 345 343 340 346 348 349 355 358 356 359
347 349 356 351 355 355 355 355 354 346 352 356 358 361 353 360 359 359 366 365 364 358 355 355 359 360 351 354 346 351 351 351 346 343 345 343 344 341 350 351 350 347 353
349 354 356 360 357 358 358 356 358 354 352 351 357 350 351 355 358 363 351 360 363 350 354 356 356 354 347 347 341 345 339 341 347 347 346 342 341 341 348 350 349 347 347
349 351 356 361 362 362 365 357 361 359 358 351 352 346 347 352 357 359 359 361 363 367 357 354 355 354 342 344 344 345 336 335 339 343 346 345 344 343 341 343 345 349 353
344 353 358 360 364 363 366 349 354 351 346 349 350 348 348 351 356 359 362 362 361 359 352 357 358 359 354 346 345 345 345 345 331 332 347 344 349 344 345 345 344 350 351
349 350 357 361 365 365 367 363 359 355 352 354 356 347 347 352 357 356 361 358 359 356 348 359 357 356 360 354 350 352 351 345 344 344 338 343 348 350 352 348 348 348 352
349 348 355 360 361 363 362 361 361 355 351 348 352 347 348 351 356 357 361 356 361 361 353 347 351 362 360 358 357 352 351 347 347 340 339 340 343 342 349 352 348 348 350
Wind_Speed
15 15 14 14 12 11 13 15 15 17 16 15 15 16 14 14 15 15 15 14 13 11 12 12 11 10 10 10 11 10 9 10 12 14 15 15 14 13 13 14 17 14 14
19 17 16 14 12 12 12 15 15 16 16 16 15 16 14 13 14 14 13 12 11 11 11 11 11 10 9 8 8 7 7 6 9 12 14 13 13 12 8 7 17 14 14
19 17 16 14 12 13 13 15 16 15 17 16 16 14 14 12 12 12 12 11 10 11 11 10 9 9 8 7 7 5 4 6 7 10 13 8 7 9 11 16 16 15 16
19 17 16 14 13 13 14 14 15 17 17 17 17 14 12 11 10 10 9 9 9 9 10 9 8 7 6 6 6 5 5 5 6 7 9 11 9 8 11 14 14 13 15
17 16 16 15 13 14 14 15 16 16 17 17 14 13 11 9 7 7 7 6 6 6 7 7 6 6 5 5 5 5 5 6 6 5 7 15 8 12 13 12 11 12 11
20 19 15 15 14 14 14 14 16 16 17 17 16 14 10 9 3 4 5 7 5 5 6 6 5 6 5 5 4 5 6 7 5 6 4 10 8 17 15 11 10 11 12
19 18 16 14 14 13 13 15 15 16 17 17 17 17 15 8 1 3 3 6 6 6 5 5 6 5 5 5 5 6 6 7 7 7 5 9 11 14 13 10 9 10 11
18 18 16 14 13 13 14 13 14 15 16 17 17 18 18 16 11 13 6 4 6 7 6 6 6 6 6 6 6 5 7 10 8 6 3 7 14 14 11 8 9 9 10
18 18 14 13 13 13 12 14 14 14 14 15 16 17 17 17 18 19 11 9 8 8 6 7 7 7 7 7 6 6 8 11 7 9 6 7 10 11 9 9 10 10 9
18 17 15 11 12 11 10 13 14 15 14 13 14 16 17 13 13 18 16 13 11 9 8 8 8 8 7 7 7 7 8 10 9 5 6 6 11 10 8 9 9 10 9
13 13 15 13 11 11 11 10 12 13 13 12 12 13 13 7 11 15 15 14 11 10 9 10 9 7 7 6 7 8 8 5 5 4 5 10 12 11 8 9 8 8 8
15 14 12 14 13 11 9 11 9 9 8 8 8 7 7 7 6 6 12 15 13 12 11 10 10 8 9 5 6 7 4 7 5 6 6 12 12 11 9 8 9 8 7
17 11 14 7 10 10 9 7 5 4 3 5 7 7 7 3 5 8 6 5 5 9 5 8 7 7 10 4 4 3 4 7 4 6 10 13 13 10 9 10 10 8 7
9 12 10 12 6 8 7 8 8 8 7 6 8 7 3 3 4 3 2 4 5 5 2 7 6 9 5 6 12 9 6 6 5 4 8 15 14 10 9 9 8 8 8
16 14 13 12 9 10 6 2 6 4 7 7 7 8 5 5 3 4 1 0 3 2 4 7 6 9 11 8 8 11 9 7 10 5 4 14 14 13 11 9 9 9 9
12 14 15 13 8 7 5 1 4 4 5 6 6 7 8 6 4 3 2 2 4 4 3 5 2 0 2 4 2 7 7 7 4 7 6 7 12 12 11 10 10 10 9
14 15 14 11 9 8 6 3 3 5 7 6 5 7 5 3 5 4 2 4 3 2 3 3 2 5 4 2 3 4 3 5 6 9 9 7 8 12 13 12 10 10 10
14 16 15 9 10 10 8 6 5 4 4 6 6 7 8 3 1 4 4 5 4 6 4 3 2 7 5 6 4 4 6 8 7 6 7 8 8 8 11 13 12 11 10
16 14 14 15 16 14 10 6 5 3 3 2 3 6 8 7 5 5 4 5 3 4 4 6 6 7 4 6 6 7 5 3 5 8 6 9 10 9 8 14 15 13 13
16 17 14 12 15 12 7 6 4 1 4 3 2 3 7 6 7 5 4 4 5 1 3 5 6 7 3 1 2 7 6 11 6 7 7 5 5 11 12 11 8 8 14
12 17 15 11 8 9 8 7 7 7 3 3 1 4 6 5 7 6 1 2 2 2 3 5 2 0 4 3 4 3 3 0 9 3 7 7 6 6 12 11 8 7 8
13 14 12 12 16 11 8 8 6 7 4 5 3 3 6 8 8 5 4 4 5 3 3 3 3 2 3 3 2 2 3 5 3 1 4 6 10 6 10 13 10 10 8
13 11 13 10 11 8 6 6 5 5 3 2 2 3 4 10 8 6 6 4 4 2 1 3 2 4 4 3 10 2 1 3 3 3 6 4 7 5 6 7 7 7 9
14 15 16 13 11 9 7 7 9 7 5 5 6 5 6 15 10 9 7 5 3 3 4 3 4 4 3 6 2 5 7 4 3 3 3 3 5 5 6 7 8 7 8
16 16 16 15 12 8 8 6 4 4 5 6 6 11 11 12 10 9 8 5 4 6 7 1 4 4 3 1 4 4 8 2 3 4 1 4 2 1 3 7 8 7 10
15 15 16 15 12 11 9 8 7 9 7 6 7 8 8 8 8 7 9 6 5 6 7 2 4 4 1 2 3 4 3 1 2 5 2 3 2 5 3 5 4 6 8
Wind_Direction
142 143 151 146 144 134 129 125 122 119 117 112 108 101 98 95 100 100 102 102 110 109 104 99 96 89 80 78 83 88 95 110 118 124 123 125 125 124 130 143 109 110 109
140 145 151 153 155 142 133 132 129 124 122 123 117 112 106 108 106 107 112 117 119 119 110 104 101 99 94 89 89 101 114 133 137 138 136 128 128 124 122 193 111 116 105
141 139 152 150 148 148 139 137 137 133 128 126 121 122 123 118 117 116 121 123 130 127 120 114 111 106 102 100 105 121 149 171 169 156 150 137 117 120 107 106 117 120 116
136 149 140 146 148 143 144 144 141 141 137 129 129 128 126 130 125 132 131 134 132 132 131 129 125 118 116 111 117 147 168 206 200 193 201 45 127 133 120 118 128 131 126
146 136 130 141 144 142 139 140 144 146 146 144 142 132 122 127 139 137 151 142 138 146 146 150 146 148 144 130 136 163 197 228 231 223 230 151 211 151 133 131 137 139 147
142 125 139 140 142 139 137 137 147 150 150 145 148 152 141 110 75 191 175 152 159 168 178 184 199 180 169 156 162 177 211 241 256 234 250 93 107 151 147 148 147 134 135
127 131 142 142 145 143 142 139 145 152 156 156 162 163 152 158 30 270 254 202 193 199 188 184 186 189 181 180 189 190 216 244 257 254 237 136 124 135 143 138 129 149 147
135 146 143 144 150 152 151 149 148 152 159 166 172 164 155 166 206 226 242 251 214 214 205 204 199 197 189 191 198 199 226 247 241 280 241 93 132 131 132 144 164 157 159
143 139 144 157 156 156 155 156 155 154 157 161 168 163 166 176 198 215 231 235 225 218 202 200 193 195 185 187 192 216 242 257 272 249 245 114 123 132 153 175 176 183 171
141 141 149 153 158 155 164 164 160 161 157 160 163 166 171 199 197 210 226 229 223 213 203 200 192 194 197 205 214 221 247 264 261 232 109 120 135 136 164 149 175 187 176
125 152 146 160 165 166 166 161 166 162 164 172 166 173 181 204 199 199 202 208 203 201 194 196 192 202 209 219 222 231 240 248 258 119 106 138 132 121 132 145 146 148 147
147 160 161 165 182 161 171 153 162 166 175 184 166 185 213 217 159 239 171 176 191 197 197 199 196 203 225 220 195 223 246 269 217 145 133 142 130 126 131 140 144 147 155
164 172 166 183 140 170 141 169 164 181 184 149 163 191 222 232 146 228 155 174 186 202 205 202 194 208 213 200 101 143 246 291 336 140 143 144 134 137 145 146 149 155 158
143 189 160 129 155 163 158 174 177 192 172 166 170 198 229 232 206 96 118 162 211 155 241 200 203 207 196 213 137 206 6 289 236 125 156 148 141 147 158 165 163 164 168
179 143 160 166 179 143 187 201 177 161 158 162 162 178 211 198 198 130 214 348 89 304 175 248 226 152 224 207 171 132 159 250 296 125 146 152 147 145 159 165 164 164 171
148 139 149 162 178 157 167 115 172 224 152 160 178 169 187 238 134 155 169 230 189 199 170 254 356 80 197 271 141 184 170 226 274 141 145 159 154 146 166 177 178 182 187
172 147 156 153 162 162 175 192 138 242 145 163 171 164 170 240 143 162 173 239 222 171 284 320 255 257 211 309 98 140 265 223 244 144 154 154 159 158 165 181 185 189 195
179 161 165 161 170 168 167 152 233 174 234 159 177 155 176 179 65 197 182 235 212 174 200 4 234 240 209 200 179 179 252 184 194 147 152 162 168 174 178 182 186 192 200
184 160 167 178 187 180 160 169 208 105 298 170 188 149 174 182 170 244 222 189 250 248 199 149 237 230 191 196 190 196 206 276 225 162 172 159 180 171 175 189 192 188 200
158 162 178 175 176 152 142 167 196 186 263 247 172 188 160 175 174 220 243 200 213 260 282 188 245 212 208 110 303 199 199 208 245 150 148 177 182 178 179 166 179 195 203
147 165 158 164 166 149 157 178 192 202 215 225 149 61 56 214 174 211 75 261 220 244 245 258 220 251 12 63 23 352 349 102 194 141 166 184 151 212 155 166 181 200 195
162 153 149 143 163 163 165 193 185 193 203 220 163 110 137 230 202 189 179 211 150 189 244 269 255 40 199 124 123 335 354 335 330 243 193 152 178 198 163 170 191 195 173
149 156 156 167 159 171 204 165 165 136 98 130 218 122 242 268 209 172 204 181 190 129 235 272 264 231 104 328 153 168 211 216 344 353 264 181 185 180 183 166 182 171 161
160 163 160 164 161 177 198 158 177 177 175 184 189 149 195 253 216 182 200 188 162 91 356 253 270 284 169 164 261 197 248 147 176 347 250 197 182 223 179 178 185 180 178
170 167 158 164 165 185 189 174 179 189 208 182 170 165 206 240 207 190 171 144 182 148 214 229 284 233 230 238 201 194 202 172 168 218 359 339 327 276 327 188 185 190 182
181 166 158 161 164 178 187 189 187 194 186 200 174 172 207 214 200 190 152 165 196 138 138 138 290 240 288 293 251 244 204 168 228 67 90 265 308 299 276 292 210 187 179